Beaufort, NC

12:15 PM EDT on March 25, 2017 (GMT -0400)
Smith

Weather History for KMRH - September, 2011

Change the Weather History Date:

Monday, September 12, 2011

  Actual Average Record
Temperature  
Mean Temperature 78 °F -  
Max Temperature 84 °F 84 °F 91 °F (1965)
Min Temperature 71 °F 65 °F 52 °F (1976)
Cooling Degree Days 12    
Growing Degree Days 28 (Base 50)    
Moisture  
Dew Point 71 °F    
Average Humidity 83    
Maximum Humidity 91    
Minimum Humidity 62    
Precipitation  
Precipitation 0.02 in - - ()
Sea Level Pressure  
Sea Level Pressure 30.04 in    
Wind  
Wind Speed 5 mph (NW)    
Max Wind Speed 12 mph    
Max Gust Speed -    
Visibility 10 miles    
Events Rain    
Averages and records for this station are not official NWS values.
T = Trace of Precipitation, MM = Missing Value Source: NWS Daily Summary

Daily Weather History Graph

Daily Weather History Graph

Search for Another Location

Airport or City:

Trip Planner

Search our weather history database for the weather conditions in past years. The results will help you decide how hot, cold, wet, or windy it might be!

Date:

Astronomy

Sep. 12, 2011 Rise Set
Actual Time 6:47 AM EDT 7:18 PM EDT
Civil Twilight 6:21 AM EDT 7:43 PM EDT
Nautical Twilight 5:52 AM EDT 8:13 PM EDT
Astronomical Twilight 5:21 AM EDT 8:43 PM EDT
Moon 7:10 PM EDT (9/12) 6:58 AM EDT (9/12)
Length of Visible Light 13h 21m
Length of Day
12h 30m
Full, 100% of the Moon is Illuminated
Sep 12
Full
Sep 20
Last Quarter
Sep 27
New
Oct 3
First Quarter
Oct 11
Full

Hourly Weather History & Observations

Time (EDT) Temp. Heat Index Dew Point Humidity Pressure Visibility Wind Dir Wind Speed Gust Speed Precip Events Conditions
12:56 AM 77.0 °F - 72.0 °F 84% 30.06 in 10.0 mi SW 4.6 mph - N/A   Clear
1:56 AM 78.1 °F - 72.0 °F 81% 30.05 in 10.0 mi WSW 3.5 mph - N/A   Clear
2:56 AM 75.0 °F - 71.1 °F 87% 30.04 in 10.0 mi Calm Calm - N/A   Clear
4:56 AM 73.9 °F - 71.1 °F 91% 30.05 in 10.0 mi NW 5.8 mph - N/A   Clear
5:56 AM 73.9 °F - 71.1 °F 91% 30.05 in 10.0 mi NNW 4.6 mph - 0.00 in   Clear
6:56 AM 75.0 °F - 72.0 °F 90% 30.07 in 10.0 mi NNW 3.5 mph - N/A   Clear
7:56 AM 75.0 °F - 72.0 °F 90% 30.08 in 9.0 mi NNW 9.2 mph - N/A   Scattered Clouds
8:56 AM 77.0 °F - 72.0 °F 84% 30.08 in 10.0 mi NNE 6.9 mph - N/A   Scattered Clouds
9:56 AM 77.0 °F - 72.0 °F 84% 30.07 in 10.0 mi North 6.9 mph - N/A   Clear
10:56 AM 80.1 °F 84.2 °F 73.0 °F 79% 30.08 in 10.0 mi NNE 5.8 mph - N/A   Clear
11:56 AM 82.0 °F 86.3 °F 71.1 °F 69% 30.07 in - Calm Calm - N/A   Unknown
1:56 PM - - - N/A% 30.03 in - Variable 6.9 mph - N/A   Unknown
3:56 PM 82.0 °F 84.9 °F 68.0 °F 62% 29.99 in 10.0 mi ESE 6.9 mph - N/A   Overcast
4:56 PM 82.9 °F 86.5 °F 69.1 °F 63% 29.99 in 10.0 mi SSE 8.1 mph - N/A   Scattered Clouds
6:56 PM 77.0 °F - 70.0 °F 79% 30.01 in 7.0 mi SSW 8.1 mph - 0.02 in Rain Light Rain
8:18 PM 77.0 °F - 71.6 °F 83% 30.03 in 10.0 mi WSW 9.2 mph - 0.00 in   Mostly Cloudy
8:26 PM 75.2 °F - 71.6 °F 89% 30.03 in 10.0 mi WSW 6.9 mph - 0.00 in   Scattered Clouds
8:56 PM 75.0 °F - 71.1 °F 87% 30.03 in 10.0 mi WNW 11.5 mph - 0.00 in   Clear
9:56 PM 73.9 °F - 70.0 °F 87% 30.04 in 10.0 mi NNW 6.9 mph - N/A   Clear
10:56 PM 71.1 °F - 68.0 °F 90% 30.04 in 9.0 mi North 4.6 mph - N/A   Clear